UAE205 EFHK-CYYZ

Flight info

Callsign UAE205
Flight time N/A
Altitude 36000
Route NEPE5C NEPEK Y357 EVLIT DCT TOGMI DCT OSLAV DCT XEBIL DCT ABADA DCT 65N007W DCT 65N019W DCT 6430N DCT 5950N DCT ROSVO IMEBA9
Aircraft A388/J-SADE2E3FGHIJ3J4J5M1RWXY/LB1D1

Departure

Time 2026-04-23 17:37
Airport Helsinki Vantaa Airport (EFHK)

Arrival

Time N/A
Airport Toronto Pearson International Airport (CYYZ)
Time Latitude Longitude Altitude Speed Heading
2026-04-23 17:00 60.31376 24.95374 195 ft 0 kts 137°
2026-04-23 17:17 60.31381 24.95363 195 ft 2 kts 137°
2026-04-23 17:18 60.31404 24.95325 195 ft 2 kts 164°
2026-04-23 17:18 60.31419 24.95320 195 ft 2 kts 186°
2026-04-23 17:18 60.31434 24.95326 195 ft 2 kts 206°
2026-04-23 17:19 60.31447 24.95341 195 ft 1 kts 225°
2026-04-23 17:19 60.31452 24.95347 195 ft 1 kts 229°
2026-04-23 17:19 60.31453 24.95351 195 ft 0 kts 228°
2026-04-23 17:23 60.31447 24.95337 195 ft 4 kts 228°
2026-04-23 17:23 60.31423 24.95282 195 ft 7 kts 229°
2026-04-23 17:23 60.31396 24.95127 195 ft 3 kts 287°
2026-04-23 17:24 60.31398 24.95119 195 ft 0 kts 291°
2026-04-23 17:24 60.31408 24.95084 195 ft 5 kts 303°
2026-04-23 17:25 60.31428 24.94853 195 ft 12 kts 240°
2026-04-23 17:25 60.31365 24.94712 195 ft 15 kts 227°
2026-04-23 17:26 60.31206 24.94366 195 ft 18 kts 227°
2026-04-23 17:26 60.31042 24.94002 195 ft 16 kts 228°
2026-04-23 17:27 60.30909 24.93704 195 ft 11 kts 228°
2026-04-23 17:27 60.30866 24.93606 195 ft 7 kts 228°
2026-04-23 17:27 60.30841 24.93549 195 ft 4 kts 228°
2026-04-23 17:27 60.30835 24.93534 195 ft 0 kts 236°
2026-04-23 17:29 60.30828 24.93507 195 ft 5 kts 249°
2026-04-23 17:29 60.30841 24.93409 195 ft 9 kts 316°
2026-04-23 17:29 60.30959 24.93302 195 ft 8 kts 359°
2026-04-23 17:30 60.30985 24.93326 195 ft 4 kts 43°
2026-04-23 17:30 60.30991 24.93340 195 ft 0 kts 48°
2026-04-23 17:36 60.31006 24.93375 195 ft 20 kts 48°
2026-04-23 17:36 60.31246 24.93902 195 ft 82 kts 47°
2026-04-23 17:36 60.31779 24.95074 195 ft 143 kts 46°
2026-04-23 17:36 60.32577 24.96835 330 ft 190 kts 45°
2026-04-23 17:37 60.33509 24.98860 883 ft 205 kts 45°
2026-04-23 17:37 60.34474 25.00992 1353 ft 209 kts 45°
2026-04-23 17:37 60.36419 25.05310 2258 ft 208 kts 45°
2026-04-23 17:38 60.37390 25.07455 2646 ft 211 kts 44°
2026-04-23 17:38 60.38449 25.09786 2972 ft 232 kts 44°
2026-04-23 17:38 60.39730 25.11828 3126 ft 249 kts 24°
2026-04-23 17:38 60.41395 25.12780 3426 ft 252 kts
2026-04-23 17:39 60.43144 25.12888 3704 ft 254 kts 359°
2026-04-23 17:39 60.44896 25.12953 4084 ft 253 kts
2026-04-23 17:39 60.46635 25.13029 4740 ft 253 kts 360°
2026-04-23 17:39 60.48374 25.13079 5488 ft 253 kts 357°
2026-04-23 17:40 60.50066 25.12214 6127 ft 255 kts 327°
2026-04-23 17:40 60.51355 25.09773 6816 ft 258 kts 314°
2026-04-23 17:40 60.52527 25.07027 7453 ft 262 kts 311°
2026-04-23 17:40 60.53636 25.04125 8077 ft 263 kts 309°
2026-04-23 17:41 60.54649 25.01033 8703 ft 270 kts 302°
2026-04-23 17:41 60.56579 24.93555 9901 ft 333 kts 300°
2026-04-23 17:41 60.57682 24.89154 10478 ft 357 kts 301°
2026-04-23 17:42 60.59944 24.80081 11494 ft 363 kts 302°
2026-04-23 17:42 60.61080 24.75517 11994 ft 364 kts 302°
2026-04-23 17:42 60.62220 24.70935 12491 ft 365 kts 302°
2026-04-23 17:43 60.63362 24.66341 12989 ft 366 kts 302°
2026-04-23 17:43 60.64502 24.61730 13486 ft 367 kts 303°
2026-04-23 17:43 60.65656 24.57054 13987 ft 368 kts 303°
2026-04-23 17:43 60.66803 24.52403 14483 ft 370 kts 303°
2026-04-23 17:44 60.67953 24.47722 14978 ft 372 kts 303°
2026-04-23 17:44 60.68918 24.43792 15392 ft 373 kts 303°
2026-04-23 17:44 60.71232 24.34334 16381 ft 376 kts 302°
2026-04-23 17:45 60.72393 24.29566 16875 ft 378 kts 302°
2026-04-23 17:45 60.74736 24.19929 17870 ft 381 kts 302°
2026-04-23 17:45 60.75908 24.15092 18354 ft 383 kts 303°
2026-04-23 17:46 60.78271 24.05302 19240 ft 388 kts 303°
2026-04-23 17:46 60.79465 24.00345 19684 ft 390 kts 303°
2026-04-23 17:46 60.80663 23.95359 20124 ft 394 kts 303°
2026-04-23 17:47 60.81877 23.90289 20571 ft 397 kts 303°
2026-04-23 17:47 60.83089 23.85214 21011 ft 399 kts 303°
2026-04-23 17:47 60.85528 23.74964 21747 ft 405 kts 303°
2026-04-23 17:48 60.86757 23.69786 22112 ft 406 kts 303°
2026-04-23 17:48 60.87989 23.64582 22475 ft 409 kts 303°
2026-04-23 17:48 60.89225 23.59347 22839 ft 410 kts 303°
2026-04-23 17:48 60.90474 23.54048 23204 ft 412 kts 303°
2026-04-23 17:49 60.91715 23.48758 23565 ft 415 kts 303°
2026-04-23 17:49 60.92964 23.43433 23927 ft 417 kts 303°
2026-04-23 17:49 60.94217 23.38074 24288 ft 419 kts 303°
2026-04-23 17:49 60.95475 23.32672 24649 ft 421 kts 303°
2026-04-23 17:50 60.96740 23.27238 25013 ft 423 kts 303°
2026-04-23 17:50 60.99317 23.16131 25574 ft 436 kts 303°
2026-04-23 17:50 61.00616 23.10498 25811 ft 438 kts 303°
2026-04-23 17:51 61.01912 23.04861 26042 ft 437 kts 303°
2026-04-23 17:51 61.03207 22.99221 26272 ft 437 kts 303°
2026-04-23 17:51 61.05779 22.87975 26726 ft 435 kts 303°
2026-04-23 17:52 61.07057 22.82362 26952 ft 433 kts 303°
2026-04-23 17:52 61.09634 22.71023 27422 ft 440 kts 303°
2026-04-23 17:52 61.10924 22.65307 27675 ft 441 kts 303°
2026-04-23 17:53 61.13501 22.53855 28195 ft 440 kts 303°
2026-04-23 17:53 61.14780 22.48143 28451 ft 439 kts 303°
2026-04-23 17:53 61.16063 22.42413 28716 ft 442 kts 303°
2026-04-23 17:54 61.17356 22.36615 28978 ft 442 kts 303°
2026-04-23 17:54 61.18639 22.30845 29237 ft 441 kts 303°
2026-04-23 17:54 61.21183 22.19351 29753 ft 439 kts 303°
2026-04-23 17:55 61.23742 22.07747 30290 ft 449 kts 303°
2026-04-23 17:55 61.25040 22.01844 30563 ft 453 kts 303°
2026-04-23 17:55 61.26351 21.95853 30824 ft 455 kts 302°
2026-04-23 17:56 61.27652 21.89887 31081 ft 457 kts 302°
2026-04-23 17:56 61.30275 21.77799 31565 ft 463 kts 302°
2026-04-23 17:56 61.31588 21.71721 31769 ft 463 kts 302°
2026-04-23 17:57 61.32904 21.65616 31972 ft 462 kts 302°